sat.trackr.live / text

‹ back to catalog

KUIPER-00128

NORAD 65957 · 2025-228L

PAYLOAD ACTIVE UNKNOWN

§ Identity

Operator
Country
US
Launch date
2025-10-14
Launch site
AFETR
Launch vehicle
Mass (kg)
RCS (m²)

External: N2YO · Heavens-Above · Gunter

§ Orbital elements

Epoch: 2026-05-25T00:17:31.189056Z

Period
97.30 min
Inclination
51.9008°
Eccentricity
0.0000908
Mean motion
14.79937314 rev/d
Perigee alt
628.9 km
Apogee alt
630.2 km
Semi-major
7,007.7 km
B*
2.1873e-4
RAAN
15.6253°
Arg perigee
105.5812°
Mean anomaly
254.5250°
Rev number
3,463

§ Raw data

KUIPER-001281 65957U 25228L   26145.01216654  .00001447  00000+0  21873-3 0  99932 65957  51.9008  15.6253 0000908 105.5812 254.5250 14.79937314 34635

JSON: /api/v1/satellites/65957 · /tle

For live sub-satellite position, see the globe view (requires WebGL).

§ Visibility from observer

Set your observer location to see the next 7 days of passes ≥ 10°. The values pass through the URL so the page stays shareable.

No JS? Fill the form by hand. The geolocation button needs JavaScript.